Location: Street
(51.1247°N, 2.7429°W)
Time: 22:50:31
(UTC+00:00)

Vanguard 1 - Visible Passes

Search period start: 05 December 2020 00:00
Search period end: 15 December 2020 00:00
Orbit: 650 x 3833 km, 34.2° (Epoch: 05 December)

Date Brightness Start Highest point End Pass type
(mag) Time Alt. Az. Time Alt. Az. Time Alt. Az.
05 Dec 12.3 03:50:01 12° SSE 03:50:01 12° SSE 03:51:41 10° SE visible
05 Dec 12.0 06:03:34 10° SW 06:08:18 21° S 06:15:04 10° SE visible
06 Dec 12.0 04:09:54 14° SSE 04:09:54 14° SSE 04:13:04 10° SE visible
06 Dec 12.1 06:24:14 10° SW 06:28:53 20° S 06:35:27 10° SE visible
07 Dec 11.9 04:29:46 15° S 04:30:09 16° SSE 04:34:01 10° SE visible
07 Dec 12.2 06:45:06 10° SW 06:49:31 18° S 06:55:31 10° SSE visible
08 Dec 11.8 04:49:37 15° S 04:50:38 16° S 04:54:43 10° SE visible
08 Dec 12.3 07:06:16 10° SW 07:10:09 15° S 07:15:09 10° SSE visible
09 Dec 11.8 05:09:28 14° SSW 05:11:10 16° S 05:15:09 10° SE visible
10 Dec 11.9 05:29:19 11° SSW 05:31:43 14° S 05:35:17 10° SSE visible
11 Dec 12.0 05:50:03 10° SSW 05:52:18 12° S 05:54:54 10° SSE visible
